Helicity
-4 -62 -103 -3 108 143 145 138 164 146 171 183 185 161 141 140 121 109 109 110 112 113 120 134 138 136 160 150 163 205 194 202 174 230 191 155 118 105 99 108 109 110 106
-68 134 -19 152 108 136 156 158 161 170 162 179 185 165 162 146 132 114 105 116 125 127 135 146 145 153 169 175 188 221 253 244 186 216 224 186 154 123 113 109 118 118 120
-69 2 -191 76 66 67 95 110 148 165 168 174 210 220 223 198 166 139 129 117 116 126 138 143 162 159 189 193 187 209 258 286 196 181 219 209 159 177 154 136 132 134 132
15 -26 26 -21 3 -140 -47 77 116 154 147 159 174 191 180 176 155 151 141 122 121 128 136 149 161 167 185 192 191 209 252 296 257 246 225 212 168 177 173 170 145 146 145
51 74 99 89 29 -100 -106 -61 33 115 147 137 140 147 164 167 195 195 163 148 147 142 152 158 167 180 199 193 209 224 224 270 283 319 279 250 255 245 222 225 205 193 176
77 96 75 105 52 4 -57 35 27 10 90 134 129 133 134 157 188 174 170 175 176 167 151 162 179 185 191 195 196 207 219 237 265 298 273 274 264 237 273 272 258 245 241
24 73 95 132 99 65 54 1 41 38 126 64 88 100 104 126 142 167 174 196 194 199 155 188 200 200 196 194 221 232 225 229 242 261 254 257 255 239 296 291 287 304 285
3 4 57 66 69 61 48 78 50 42 59 173 109 94 100 142 158 178 205 210 219 204 206 202 200 199 207 211 227 251 248 245 242 245 266 269 269 270 262 290 330 381 292
-1 -15 -1 17 42 58 54 49 84 104 137 132 116 98 132 181 195 169 208 217 229 251 245 240 223 208 223 234 260 280 281 284 300 319 335 370 360 346 314 278 256 213 233
7 4 13 32 36 45 71 87 80 98 120 159 185 200 158 176 212 233 242 198 198 212 240 246 244 241 219 243 271 304 331 373 396 401 422 405 415 414 366 323 199 175 183
5 -9 7 24 41 44 43 43 49 49 40 79 118 124 132 168 186 211 192 220 213 174 223 229 251 276 283 308 330 324 352 377 456 469 491 519 476 634 549 217 171 165 172
-3 -21 -6 20 41 45 49 50 56 56 58 57 65 84 118 185 214 189 168 168 237 230 226 264 267 315 336 337 357 372 389 451 515 587 640 625 482 364 237 167 160 148 156
-20 -3 13 31 28 26 23 42 51 53 53 54 58 77 106 122 132 152 177 223 237 263 265 314 311 417 349 353 376 462 534 574 583 526 527 608 410 298 221 149 152 149 149
42 82 120 123 114 97 56 26 28 46 61 70 58 45 80 121 143 148 179 190 202 228 271 293 396 451 504 511 524 499 540 579 573 493 373 404 341 238 171 108 108 123 140
238 243 196 163 128 119 95 67 45 22 14 26 60 76 79 91 111 148 183 201 189 242 266 312 421 496 628 658 625 513 548 538 567 509 478 377 269 125 89 109 117 124 142
385 394 356 269 185 132 88 67 50 27 15 11 11 1 25 52 98 131 159 200 223 280 337 334 411 454 491 490 694 805 880 560 586 468 322 315 180 105 69 81 96 116 139
388 389 332 246 206 166 94 81 58 32 33 29 29 18 4 16 54 116 161 186 240 307 310 327 378 378 473 450 514 609 630 691 457 350 350 220 131 101 111 84 96 99 91
252 288 233 210 165 121 101 49 24 21 33 41 33 12 24 38 62 106 150 198 242 288 339 367 386 430 491 448 524 549 672 523 378 327 208 135 140 133 149 161 151 124 99
95 114 108 118 134 80 15 -3 21 27 17 37 41 34 55 68 96 121 174 237 288 327 360 443 473 480 468 480 502 625 532 408 322 253 169 158 151 112 123 166 139 83 68
-78 -35 -17 -10 -29 -17 -32 -16 15 9 21 13 53 87 81 106 123 164 201 263 296 342 402 415 415 401 514 498 514 540 473 382 296 196 155 113 134 116 110 149 101 81 67
-113 -115 -79 -60 -65 -66 -38 -54 -42 -23 7 13 46 121 142 159 202 253 237 251 300 345 359 399 423 439 556 476 453 391 376 318 260 221 226 175 123 118 110 104 84 83 102
72 -65 -120 -101 -38 81 121 116 95 94 102 80 69 134 204 226 273 306 250 254 301 318 352 389 457 465 473 407 350 317 354 306 255 282 253 204 138 145 128 116 99 93 161
24 60 34 19 4 -17 51 102 119 128 140 168 140 105 203 234 283 269 237 252 271 262 356 392 445 480 530 464 338 356 257 226 318 286 229 167 162 153 121 83 92 149 155
37 23 22 35 52 80 83 81 93 124 174 194 182 172 233 263 274 250 239 241 271 311 374 399 479 550 528 493 414 330 308 274 336 268 207 188 202 143 74 100 129 136 147
32 32 40 49 59 81 103 89 77 109 131 183 190 182 187 190 240 240 239 252 245 314 429 457 572 608 547 487 404 439 410 402 309 277 275 253 233 153 94 117 126 140 153
-11 -1 8 38 73 91 119 136 109 89 89 123 168 204 195 214 257 276 305 227 272 313 328 464 593 643 567 494 385 451 307 214 207 265 239 226 198 109 93 112 123 135 137
Wind_Speed
46 46 54 66 71 50 46 47 44 42 40 43 42 42 42 41 41 39 36 34 31 28 27 26 22 20 15 13 10 10 7 8 5 10 18 21 19 16 16 15 15 18 21
37 18 22 45 62 47 49 48 48 42 42 41 43 43 41 44 44 42 41 38 36 34 33 30 28 26 23 19 18 17 19 20 9 19 21 27 28 24 19 19 17 17 21
35 25 26 29 38 56 51 53 52 46 43 42 40 41 41 43 45 46 44 42 39 37 36 33 32 31 29 28 25 24 23 24 21 18 25 32 34 28 25 21 19 21 22
36 23 11 6 37 48 49 49 53 50 46 42 42 44 47 49 50 47 46 44 43 41 40 38 36 34 34 33 32 30 29 28 28 28 32 32 28 32 37 31 28 27 29
35 30 16 15 17 36 41 42 50 54 46 47 46 49 52 54 50 50 49 48 46 45 43 42 41 40 39 37 35 34 34 33 33 33 35 37 35 31 37 43 33 33 35
36 24 22 15 10 22 45 43 33 46 53 54 55 57 57 58 57 56 56 55 51 49 48 47 45 44 43 42 41 39 38 37 38 37 35 37 39 39 41 45 40 37 38
32 27 12 9 17 16 20 33 32 39 26 53 53 55 58 60 61 60 60 59 60 58 52 49 48 48 46 45 43 42 41 40 42 41 41 42 41 40 41 43 42 44 42
34 38 32 26 28 30 26 24 38 50 37 45 53 56 60 62 61 61 65 67 66 61 57 52 52 49 48 47 45 45 44 42 44 44 43 43 42 41 39 43 42 48 45
44 43 42 39 37 31 27 32 38 38 24 38 48 40 60 61 63 65 65 61 62 65 63 57 59 58 52 49 46 48 48 44 42 41 39 38 39 38 40 42 41 40 46
53 53 48 47 42 35 33 28 28 35 36 30 36 44 42 68 58 60 56 58 63 54 57 55 53 52 53 55 47 49 51 48 43 39 37 39 40 36 37 40 42 40 42
57 59 60 51 44 43 41 42 43 45 50 52 45 45 48 49 56 55 50 50 49 48 49 51 51 48 47 47 44 42 43 42 43 39 36 36 34 39 43 38 38 36 39
58 60 57 50 48 49 50 50 48 50 54 58 58 56 53 50 53 55 54 54 51 52 53 56 54 54 51 48 47 44 43 40 38 34 33 34 41 44 35 32 32 34 37
62 60 56 54 54 55 54 54 55 58 61 63 64 64 63 62 63 64 67 67 60 55 57 60 56 57 52 47 49 47 43 41 36 32 38 43 47 38 31 27 27 33 37
56 55 54 54 54 54 53 53 56 56 61 64 64 64 65 64 65 68 70 72 73 73 60 62 52 49 54 49 49 43 41 39 40 41 44 46 38 35 28 26 30 31 34
59 59 59 59 59 60 62 62 61 60 61 62 61 62 63 63 64 66 66 66 69 75 69 64 61 58 48 45 45 47 44 41 44 47 45 36 30 29 24 29 26 29 27
69 69 68 68 67 67 67 67 68 65 62 67 69 68 66 65 63 59 61 63 65 62 61 63 58 61 58 57 42 41 50 52 43 41 30 24 21 17 21 28 22 23 30
78 79 78 77 77 77 76 77 76 72 71 71 71 71 70 68 66 60 56 54 56 56 59 58 58 57 57 54 53 48 44 36 43 33 23 19 18 15 21 28 24 25 27
88 89 87 89 89 90 88 86 84 82 78 78 77 78 76 73 66 62 60 55 51 49 49 50 52 52 51 44 41 40 35 35 29 26 21 15 13 17 23 28 30 27 24
96 98 97 98 100 98 96 97 98 93 89 89 85 81 75 74 70 66 61 58 53 50 46 43 42 42 44 39 38 34 30 30 30 26 22 19 14 20 23 25 28 25 25
103 110 112 111 108 105 103 104 103 101 101 96 92 84 77 74 72 68 61 56 54 51 47 44 40 38 35 32 31 30 29 28 26 23 19 17 16 20 19 22 22 28 29
114 113 110 111 112 111 111 114 111 109 106 103 97 89 80 73 69 65 60 56 53 51 47 44 41 35 31 30 29 27 26 26 23 23 20 19 16 15 16 15 19 28 30
120 115 117 117 115 113 113 118 118 112 108 105 102 94 84 73 66 62 57 53 50 49 48 42 39 38 33 32 29 26 25 24 26 27 22 16 14 13 16 20 24 30 30
111 112 116 120 116 114 113 121 120 115 112 109 106 96 84 75 66 61 58 55 50 50 50 45 42 38 34 32 30 28 26 24 22 20 17 14 13 14 19 23 27 26 34
106 107 109 111 116 112 112 110 111 109 109 109 105 89 81 74 67 61 57 56 54 52 49 47 43 38 36 34 33 28 24 22 20 17 16 15 14 17 22 23 26 30 38
98 101 104 107 110 110 110 108 109 104 103 100 96 84 76 72 68 65 61 58 54 50 50 48 44 42 38 33 28 26 24 22 20 16 16 18 20 23 25 28 31 37 39
96 99 100 103 106 105 104 101 98 95 96 96 89 81 74 69 66 61 58 53 50 44 43 40 41 39 35 31 29 22 19 17 15 20 21 22 24 27 29 31 35 37 39
Wind_Direction
262 260 255 251 233 232 230 229 231 235 234 240 240 244 245 248 251 254 253 253 253 253 255 257 256 255 246 239 234 262 254 296 325 338 330 334 337 343 345 357 2 354 350
265 289 309 255 229 237 233 234 234 234 238 240 244 248 248 252 254 256 256 255 255 256 256 254 254 254 254 252 247 250 272 286 258 300 312 313 317 316 322 330 338 342 341
266 280 330 252 241 251 251 242 242 240 242 243 244 251 253 258 258 259 259 259 257 257 257 256 256 256 255 250 249 252 257 270 269 281 306 310 307 312 319 308 316 323 328
262 280 352 321 255 248 259 249 244 245 245 243 245 248 251 255 259 260 260 259 260 259 259 257 256 255 257 255 255 257 260 263 261 279 291 308 318 312 316 312 308 314 318
272 268 323 309 288 275 271 249 254 250 250 249 250 252 255 259 263 264 262 263 264 263 262 261 260 260 259 259 256 257 260 263 266 273 283 293 302 309 314 311 307 309 313
278 298 307 329 316 297 269 278 272 260 254 253 254 256 258 260 261 262 262 264 266 265 264 264 263 263 262 261 261 261 261 263 270 270 277 282 291 296 303 308 308 303 312
285 292 315 325 310 306 303 296 291 273 269 258 258 260 262 262 263 264 264 264 264 266 264 264 263 264 263 262 262 262 262 263 268 267 273 281 286 297 297 302 306 306 311
323 298 314 314 303 299 297 302 291 271 280 268 265 265 266 266 267 267 266 266 266 268 269 267 267 265 265 264 263 264 266 266 270 272 276 281 286 294 296 298 300 305 308
326 322 318 315 311 306 296 293 293 293 291 282 275 272 270 269 269 269 268 269 267 268 268 268 268 268 266 265 265 267 268 269 272 274 278 283 290 296 300 302 300 300 300
321 317 316 312 318 317 312 307 294 289 288 287 280 279 275 271 273 272 270 270 269 265 265 265 263 263 265 265 264 266 268 268 271 273 276 282 286 297 305 304 304 303 305
318 319 313 308 314 316 317 312 306 299 293 291 288 284 283 280 275 273 271 269 268 264 263 263 262 259 259 261 261 263 264 263 267 271 274 283 292 298 304 299 301 305 309
302 316 323 318 314 313 312 311 310 305 299 296 293 288 286 283 278 273 278 272 269 268 265 267 264 262 260 258 258 258 261 260 261 265 271 281 293 299 295 297 304 307 311
312 313 318 319 318 317 315 311 307 306 301 297 294 290 287 285 281 279 274 273 274 272 275 270 265 263 259 258 262 261 260 262 267 270 277 287 289 287 292 297 302 308 313
336 335 330 325 325 324 323 320 316 315 308 305 300 296 292 288 285 282 277 275 274 273 270 270 268 264 260 259 258 256 256 260 266 273 284 287 282 282 286 292 300 314 319
333 331 330 330 331 327 323 320 318 318 315 312 311 306 302 296 291 286 283 280 276 272 274 271 270 262 259 258 255 255 255 261 270 279 282 281 283 283 283 290 306 313 326
325 322 321 321 320 321 322 320 317 315 317 312 308 307 305 303 297 294 289 284 280 276 272 270 270 264 265 255 250 252 262 262 270 279 272 280 279 277 284 298 314 322 324
319 316 316 315 315 315 315 314 315 315 311 310 311 311 308 303 300 297 293 288 282 279 276 272 266 266 264 253 253 257 259 259 270 267 261 263 270 277 290 296 313 324 328
314 313 313 311 310 309 309 311 311 310 309 307 306 306 305 303 303 298 293 288 285 280 277 274 270 266 263 247 248 250 254 264 259 251 249 242 256 275 288 298 311 322 331
312 309 308 307 307 307 307 305 303 304 303 302 303 303 304 302 301 297 293 289 286 281 276 272 269 267 262 243 240 243 254 257 251 254 250 254 261 279 292 307 313 321 327
312 309 306 304 303 303 304 302 301 299 298 299 300 300 299 299 297 296 293 289 285 281 278 274 269 261 251 233 228 239 249 245 245 245 245 252 266 284 297 308 313 315 323
309 309 308 305 303 303 301 298 297 295 296 296 295 296 296 295 296 295 292 290 285 281 277 272 266 255 240 229 223 231 236 236 232 245 252 267 272 292 310 317 319 318 327
311 310 306 304 303 303 301 297 295 296 296 295 292 291 292 290 291 292 288 287 285 279 274 267 264 255 240 226 218 221 227 230 243 250 258 265 280 297 310 317 321 323 329
316 314 310 306 305 303 300 296 295 295 294 292 290 289 287 285 284 285 282 280 281 277 269 263 254 242 236 232 224 229 232 234 241 252 254 266 280 296 310 317 321 326 328
321 319 317 314 310 309 305 300 298 296 292 290 289 287 284 282 279 280 279 275 275 273 269 259 250 236 232 231 230 230 231 236 246 246 262 273 286 300 310 319 323 326 327
329 327 323 319 315 313 309 306 301 296 291 291 288 283 281 279 277 276 274 271 272 271 265 257 243 229 225 226 215 224 234 240 241 250 266 276 285 296 306 313 317 322 328
334 332 330 326 322 319 316 313 311 302 292 287 288 283 280 276 275 274 276 273 271 272 265 254 239 234 227 215 215 222 230 236 231 256 263 274 286 294 302 308 315 323 329